Regional Weather Roundup
Issued by NWS Cleveland, OH

Home | Current Version | Previous Version | Text Only | Print | Product List | Glossary Off
Versions: 1 2 3 4 5 6 7 8 9 10 11 12 13 14 15 16 17 18 19 20 21 22 23 24 25 26 27 28 29 30 31 32 33 34 35 36 37 38 39 40 41 42 43 44 45 46 47 48 49 50

650
ASUS41 KCLE 091010
RWRCLE
OHIO REGIONAL WEATHER ROUNDUP
NATIONAL WEATHER SERVICE CLEVELAND, OH
500 AM EST FRI DEC 09 2016

NOTE: "FAIR" INDICATES FEW OR NO CLOUDS BELOW 12,000 FEET WITH NO
SIGNIFICANT WEATHER AND/OR OBSTRUCTIONS TO VISIBILITY.

OHZ001>008-015>018-024>027-034-035-043-044-091100-
   NORTHWEST OHIO

CITY           SKY/WX    TMP DP  RH WIND       PRES   REMARKS
DEFIANCE       CLOUDY    23  15  71 SW7G17    30.37S WCI  15
FINDLAY        CLOUDY    23  15  71 W22       30.36R WCI   8
TOLEDO EXPRESS CLOUDY    22  19  89 W16G22    30.34R WCI   8
TOLEDO EXEC    CLOUDY    24  19  81 W13       30.35S WCI  12
LIMA           CLOUDY    21  16  81 W20       30.38S WCI   6
$$

OHZ009>014-019>023-028>033-038-089-091100-
   NORTHEAST OHIO

CITY           SKY/WX    TMP DP  RH WIND       PRES   REMARKS
CLE-HOPKINS    FLURRIES  25  17  72 W15       30.33S WCI  13
CLE-LAKEFRONT  CLOUDY    26  19  74 SW23      30.30R WCI  11
CUY CO. ARPT   NOT AVBL
LORAIN-ELYRIA  CLOUDY    22  16  78 W14       30.32S WCI   9
ASHTABULA      CLOUDY    24  21  88 W12       30.23R WCI  13
AKRON-CANTON   FLURRIES  22  16  78 W8        30.30R WCI  12
WOOSTER        CLOUDY    21  16  81 W15       30.31S WCI   8
MANSFIELD      LGT SNOW  20  16  84 W12       30.31S FOG     WCI   8
YOUNGSTOWN     LGT SNOW  23  17  78 W10       30.24R WCI  12
$$

OHZ042-051>053-060>062-070>072-077>081-091100-
  SOUTHWEST OHIO

CITY           SKY/WX    TMP DP  RH WIND       PRES   REMARKS
CINC-COVINGTON CLOUDY    21  14  74 W9        30.47S WCI  11
CINC-LUNKEN    CLOUDY    24  13  62 W15       30.51S WCI  11
HAMILTON       MOCLDY    22  15  75 W10       30.49S WCI  11
DAYTON         PTCLDY    17  13  84 W10       30.43R WCI   5
WRIGHT-PAT AFB PTCLDY    18  13  83 SW7       30.44R WCI   8
DAYTON GENERAL CLEAR     19  14  81 SW7       30.43S WCI  10
WILMINGTON     CLEAR     18  13  80 W12       30.42S WCI   5
$$

OHZ036-037-039>041-045>050-054>059-063>069-073>076-082>088-091100-
  CENTRAL AND SOUTHEAST OHIO

CITY           SKY/WX    TMP DP  RH WIND       PRES   REMARKS
COLUMBUS       FLURRIES  21  16  81 W9        30.41R WCI  11
OSU AIRPORT    CLOUDY    21  15  78 W9        30.40R WCI  11
BOLTON FIELD   CLOUDY    21  14  75 W8G18     30.41S WCI  11
RICKENBACK AFB   N/A     21  14  75 W10       30.43R WCI  10
NEWARK         CLOUDY    22  15  75 SW6       30.39S WCI  14
MARION         CLOUDY    21  15  78 W14G23    30.36S WCI   8
LANCASTER      LGT SNOW  21  15  78 W12       30.42S WCI   9
ZANESVILLE     FLURRIES  22  16  78 SW10      30.38R WCI  11
NEW PHILLY     NOT AVBL
$$




USA.gov is the U.S. government's official web portal to all federal, state and local government web resources and services.